軌道要素
Epoch 2012 Aug. 21.0 TT = JDT 2456160.5
T 2012 Aug. 18.87555 TT Rudenko
q 1.3711862 (2000.0) P Q
n 0.10568554 Peri. 312.07309 +0.99007001 -0.07555109
a 4.4305638 Node 52.60234 +0.12347600 +0.87047495
e 0.6905165 Incl. 8.58179 -0.06719418 +0.48637988
P 9.33
From 399 observations 2012 Sept. 23-2021 July 7, mean residual 0".7.
|